Погода в Дроэде

Ирландия     53°43′05″N   6°21′22″W
темп.,
°C
ветер,
м/с
пор.,
м/с
влажн.,
%
обл.,
%
осадки,
мм/ч
давл.,
гПа
погр.,
м
30 июня, чт
чт3001:00+12з3393100 2.6 1009110
04:00+11сз4692100 1.1 1009224
07:00+11зсз4694100 1.9 1010253
10:00+12зсз4590100 0.1 1010289
13:00+14юз118176 0.4 1010278
16:00+16ю027425 2.0 1010428
19:00+16з24775 4.0 1010327
22:00+13з46875 1.6 101192
1 июля, пт
пт101:00+11зсз479210 1.6 1012149
04:00+10з589447 0.0 1012191
07:00+10зюз5892100 0.0 1013259
10:00+13зюз5781100 0.0 1013657
13:00+16юз576990 0.2 1012575
16:00+17юз686689 0.1 1011536
19:00+15ююз7118136 0.2 1011474
22:00+14ююз71390100 0.9 1011505
2 июля, сб
сб201:00+11зюз711913 2.1 1012523
04:00+10юз61092100 0.0 1012377
07:00+11юз7109276 0.1 1013422
10:00+12юз788597 0.0 1013604
13:00+14зюз687772 0.6 1013580
16:00+16зсз676992 0.6 1014519
19:00+16з58755 0.8 1015447
22:00+13з6108586 0.1 1017314
3 июля, вс
вс301:00+11з6109294 0.1 1019355
04:00+10з599155 0.0 1019316
07:00+10з6991100 0.0 1020299
10:00+13з677794 0.1 1021769
13:00+14з5771100 0.1 1021687
16:00+15з6876100 0.1 1021481
19:00+16з6872100 0.2 1020453
22:00+13зюз59829 0.1 1020234
4 июля, пн
пн401:00+11зюз5109184 0.1 1020301
04:00+12юз5108868 0.1 1019470
07:00+13зюз5986100 0.1 1018416
10:00+13зюз578871 0.3 1018478
13:00+15з577896 0.6 1018326
16:00+17зсз467286 0.2 1018429
19:00+16зсз68710 0.3 1018494
22:00+12зсз47825 0.0 1020180